Preview of NWS' New Version of Forecast
This preview is not operational and should not be used for support decisions.

Regional Weather Roundup (RWR)

Issued by National Weather Service (NWS)

                            
000
ASUS46 KSEW 161910
RWRWA 

WASHINGTON REGIONAL WEATHER ROUNDUP
NATIONAL WEATHER SERVICE SEATTLE WA
1200 PM PDT TUE APR 16 2019

NOTE:"FAIR" INDICATES FEW OR NO CLOUDS BELOW 12,000 FEET WITH NO 
SIGNIFICANT WEATHER AND/OR OBSTRUCTIONS TO VISIBILITY.

WAZ507-509-555>559-162000-
SEATTLE, TACOMA, EVERETT, AND VICINITY
  
CITY           SKY/WX    TMP DP  RH WIND       PRES   REMARKS
EVERETT        CLOUDY    52  41  66 S12       30.01R                  
BOEING FIELD   CLOUDY    54  43  66 VRB7      30.02R                  
RENTON         CLOUDY    54  43  66 SW7       30.02R                  
SEATAC AIRPORT CLOUDY    52  43  71 SW8       30.02R                  
JBLM-MCCHORD   CLOUDY    53  52  95 SW9       30.02R                  
PUYALLUP       CLOUDY    55  48  76 SW7       30.01R                  
BREMERTON      CLOUDY    51  44  77 SW10      30.02R                  
JBLM-FT LEWIS  PTSUNNY   54  52  93 S7        30.01R                  
TACOMA NARROWS CLOUDY    51  44  77 VRB3      30.03R                  
$$
 
WAZ001-503-506-510-514-515-162000-
NORTH INTERIOR
  
CITY           SKY/WX    TMP DP  RH WIND       PRES   REMARKS
BELLINGHAM     CLOUDY    52  41  66 S12       29.98S                  
FRIDAY HARBOR  CLOUDY    53  42  66 MISG      29.98F                  
EASTSOUND      CLOUDY    54  43  66 S8        29.97F                  
PORT ANGELES   CLOUDY    52  41  66 VRB3      29.98S                  
EDIZ HOOK      FAIR      50  42  74 CALM      29.98F                  
PORT TOWNSEND  PTSUNNY   54  43  66 S10       29.97S                  
NAS WHIDBEY    CLOUDY    56  43  61 SE15      30.01F                  
ARLINGTON      CLOUDY    54  43  66 SE12      30.01S                  
BURLINGTON     PTSUNNY   57  45  62 S7        29.99F                  
$$
 
WAZ020-022-039-040-504-511-512-162000-
SOUTHWEST INTERIOR
  
CITY           SKY/WX    TMP DP  RH WIND       PRES   REMARKS
SHELTON        CLOUDY    54  42  64 VRB5      30.00R                  
OLYMPIA        CLOUDY    52  45  77 W5        30.02R                  
CHEHALIS       CLOUDY    55  45  67 SW12      30.02S                  
KELSO          PTSUNNY   55  47  74 S10       30.04S                  
VANCOUVER      CLOUDY    56  45  66 VRB6      30.04R                  
SCAPPOOSE, OR  CLOUDY    55  47  74 SE6       30.04S                  
PORTLAND, OR   PTSUNNY   56  46  69 SW9       30.05R                  
$$
 
WAZ021-516-517-162000-
WASHINGTON COAST
  
CITY           SKY/WX    TMP DP  RH WIND       PRES   REMARKS
FORKS          CLOUDY    51  44  77 SW10      29.99R                  
HOQUIAM        CLOUDY    51  46  83 CALM      30.02R                  
ASTORIA, OR    CLOUDY    54  47  77 CALM      30.01R                  
$$
 
WAZ019-023-024-040-567>569-162000-
CASCADE MOUNTAINS AND COLUMBIA GORGE
  
CITY           SKY/WX    TMP DP  RH WIND       PRES   REMARKS
STAMPEDE PASS  NOT AVBL                                               
TROUTDALE, OR  CLOUDY    57  46  66 VRB6      30.04S                  
HOOD RIVER, OR CLOUDY    55  43  62 MISG      30.01F                  
THE DALLES, OR CLOUDY    56  42  59 NW6       30.02R                  
$$

WAZ026-027-041>044-520-521-162000-
EAST SLOPES
  
CITY           SKY/WX    TMP DP  RH WIND       PRES   REMARKS
OMAK           MOSUNNY   56  30  37 S7        29.93R                  
WENATCHEE      MOSUNNY   55  31  39 VRB5      29.94R                  
ELLENSBURG     MOSUNNY   56  32  40 CALM      29.95R                  
YAKIMA           N/A     60  35  39 SW6       29.96R                  
SUNNYSIDE ARPT CLEAR     57  39  51 S5        29.98S                  
YAKIMA TC      FAIR      56  32  39 W6        29.94S                  
$$

WAZ028-034-035-162000-
COLUMBIA BASIN
  
CITY           SKY/WX    TMP DP  RH WIND       PRES   REMARKS
EPHRATA        SUNNY     58  32  37 S9        29.95R                  
MOSES LAKE     SUNNY     59  32  36 S9        29.96R                  
PASCO          MOSUNNY   60  39  45 SW10      30.00R                  
RICHLAND ARPT  PTCLDY    61  42  48 S5        30.00R                  
HERMISTON, OR  PTSUNNY   58  39  49 W12G20    29.99R                  
$$

WAZ036>038-162000-
NORTHEAST WASHINGTON
  
CITY           SKY/WX    TMP DP  RH WIND       PRES   REMARKS
SPOKANE GEIGER MOSUNNY   51  28  41 NW3       29.93R                  
SPOKANE FELTS  SUNNY     52  28  39 VRB6      29.94R                  
FAIRCHILD AFB  NOT AVBL                                               
COEURDALENE,ID SUNNY     52  31  44 VRB6      29.93S                  
DEER PARK      SUNNY     51  31  46 VRB5      29.92S                  
$$

WAZ029>033-162000-
SOUTHEAST WASHINGTON
  
CITY           SKY/WX    TMP DP  RH WIND       PRES   REMARKS
PULLMAN        PTSUNNY   48  38  68 W14       29.97R                  
LEWISTON, ID   CLOUDY    53  39  59 CALM      29.97R                  
WALLA WALLA    PTSUNNY   52  41  66 S10       30.01R                  
PENDLETON, OR  MOSUNNY   51  41  68 CALM      30.00R                  
$$